Tracking 32142 objects as of 13-Nov-2025
HD Live streaming from Space Station
objects crossing your sky now

STARLINK-34821

Track STARLINK-34821 now!
10-day predictions
STARLINK-34821 is classified as:


NORAD ID: 65199
Int'l Code: 2025-176B
Perigee: 480.9 km
Apogee: 483.6 km
Inclination: 53.2 °
Period: 94.1 minutes
Semi major axis: 6853 km
RCS: Unknown
Launch date: August 14, 2025
Source: United States (US)
Launch site: AIR FORCE EASTERN TEST RANGE (AFETR)
Your satellite tracking list
Your tracking list is empty




NASA's NSSDC Master Catalog

Two Line Element Set (TLE):
1 65199U 25176B   25316.78905659  .00045807  00000-0  15473-2 0  9993
2 65199  53.1621 335.6379 0001955  74.3640 285.7577 15.30239625 15160
Source of the keplerian elements: AFSPC